Location: Hilton Head Island
(32.2163°N, 80.7526°W)
Time: 22:00:24
(UTC-04:00)

Tiros 1 despin weight - Pass Details

Date: 16 February 2026
Orbit: 556 x 593 km, 48.2° (Epoch: 13 March)

Event Time Altitude Azimuth Distance (km) Brightness Sun altitude
Rises 20:11:34 0° 320° (NW) 2,732 ? -26.3°
Reaches altitude 10° 20:14:47 10° 346° (NNW) 1,839 ? -27.0°
Enters shadow 20:15:04 11° 350° (N) 1,783 ? -27.0°
Maximum altitude 20:17:03 14° 19° (NNE) 1,593 - -27.4°
Drops below altitude 10° 20:19:19 10° 52° (NE) 1,844 - -27.9°
Sets 20:22:33 0° 78° (ENE) 2,745 - -28.6°
